Temperature
8 8 8 8 9 9 9 10 10 10 11 11 11 11 12 12 13 13 13 13 13 13 13 13 13 13 13 13 13 13 13 13 13 12 12 13 13 13 13 13 13 13 13
8 8 8 8 8 8 9 9 9 10 10 10 11 11 11 12 12 12 12 12 13 13 13 13 13 13 13 13 13 13 12 12 12 12 12 12 12 13 13 13 13 13 13
7 7 7 7 8 8 8 9 9 9 9 10 10 10 10 11 11 11 12 12 12 12 12 12 12 13 13 12 12 12 12 12 12 12 12 12 13 13 13 13 13 13 13
6 6 6 7 7 7 8 8 8 9 9 9 9 10 10 10 10 11 11 12 12 12 12 12 12 12 12 12 12 12 12 12 12 12 12 12 13 13 13 13 13 13 13
6 6 6 6 7 7 7 8 8 8 9 9 9 9 9 9 10 10 11 11 11 11 12 12 12 12 12 12 12 12 12 12 12 11 11 11 12 12 12 12 12 13 13
5 5 5 6 6 6 7 7 8 8 8 8 8 8 9 9 9 10 10 10 11 11 11 11 11 11 11 11 12 12 12 12 12 11 11 11 11 12 12 12 12 12 13
5 5 5 5 5 6 6 7 7 7 7 8 8 8 8 8 9 9 10 10 10 10 11 11 11 11 11 11 11 11 11 11 11 11 11 11 11 11 12 12 12 12 12
4 4 4 4 5 5 6 6 6 7 7 7 7 7 8 8 8 9 9 9 10 10 10 10 10 10 11 11 11 11 11 11 11 11 11 11 11 11 11 11 11 11 11
4 3 3 4 4 5 5 6 6 6 6 7 7 7 7 8 8 8 8 9 9 9 10 10 10 10 10 10 10 11 11 11 11 10 10 10 10 10 11 11 11 11 11
3 3 3 3 4 4 4 5 5 5 6 6 6 7 7 7 7 8 8 8 8 9 9 9 9 9 10 10 10 10 10 10 10 10 10 10 10 10 10 10 10 10 10
3 3 3 3 3 4 4 4 4 5 5 5 6 6 6 6 7 7 7 8 8 8 8 8 9 9 9 9 9 9 9 10 10 9 9 9 10 9 9 9 9 9 9
3 3 3 3 3 3 3 3 4 4 4 4 5 5 5 6 6 6 6 7 7 8 8 8 8 8 8 8 9 9 9 9 9 9 9 9 9 9 9 9 8 8 8
3 3 2 2 3 3 3 3 3 3 4 4 4 4 4 5 5 6 6 6 6 7 7 7 7 7 8 8 8 8 8 8 8 8 8 8 8 8 8 8 8 8 8
2 2 2 2 2 2 3 3 3 3 3 3 4 4 4 4 4 5 5 5 5 6 6 6 6 6 7 7 7 7 7 7 7 7 7 7 7 7 7 7 7 7 7
2 2 2 2 2 2 2 2 3 3 3 3 3 3 3 3 4 4 4 4 5 5 5 5 5 6 6 6 6 6 6 6 6 6 6 7 6 6 6 6 6 6 6
2 2 2 2 2 2 2 2 2 2 3 3 3 3 3 3 3 3 3 4 4 4 4 4 4 4 5 5 5 5 5 5 5 5 6 6 6 5 5 5 5 5 5
2 2 2 2 2 2 2 2 2 2 2 2 2 2 2 2 2 2 2 3 3 3 3 3 3 3 3 3 4 4 4 4 4 4 4 4 5 4 4 4 4 4 4
3 3 2 2 2 2 2 2 2 2 2 2 2 2 2 2 2 2 2 2 2 2 2 2 2 2 2 2 3 3 3 3 3 3 3 3 3 3 3 3 3 3 3
3 3 3 2 2 2 2 2 2 2 2 1 1 1 1 1 1 1 1 1 1 1 1 1 1 1 1 1 1 1 2 2 2 2 2 2 2 2 2 2 2 2 2
3 3 3 2 2 2 2 1 1 1 1 1 1 1 1 1 1 0 0 0 0 0 0 0 0 0 0 0 0 0 0 0 0 1 1 1 1 1 1 1 1 1 1
3 3 2 2 2 2 1 1 1 1 0 0 0 0 0 0 -0 -0 -0 -0 -0 -0 -0 -0 -1 -1 -1 -1 -1 -1 -1 -1 -1 -1 -1 -0 -0 0 0 -0 -0 -0 -0
3 3 2 2 2 1 1 1 0 0 -0 -0 -0 -0 -1 -1 -1 -1 -1 -1 -1 -1 -1 -2 -2 -2 -2 -2 -2 -2 -2 -2 -2 -2 -2 -2 -1 -1 -1 -1 -1 -1 -1
3 3 2 2 1 1 1 0 -0 -0 -0 -1 -1 -1 -1 -1 -1 -2 -2 -2 -2 -2 -3 -3 -3 -3 -3 -3 -3 -3 -3 -3 -3 -3 -3 -3 -2 -2 -2 -2 -2 -2 -2
3 3 2 2 1 1 0 0 -0 -1 -1 -1 -1 -1 -1 -2 -2 -2 -2 -2 -3 -3 -3 -4 -4 -4 -4 -4 -4 -4 -4 -4 -4 -4 -4 -3 -3 -3 -3 -3 -3 -3 -3
3 2 2 1 1 0 0 -0 -1 -1 -1 -2 -2 -2 -2 -2 -2 -3 -3 -3 -4 -4 -4 -5 -5 -5 -5 -5 -5 -5 -5 -5 -5 -5 -5 -4 -4 -4 -4 -4 -4 -4 -4
3 2 2 1 1 0 -0 -1 -1 -1 -2 -2 -2 -2 -3 -3 -3 -3 -3 -4 -4 -4 -5 -5 -5 -6 -6 -6 -6 -5 -5 -5 -5 -5 -5 -5 -5 -5 -5 -5 -5 -5 -5
Wind_Speed
13 12 12 11 11 10 10 10 10 9 8 7 8 8 9 9 9 10 12 14 14 15 14 11 12 12 12 13 14 12 12 10 8 7 7 9 10 11 10 10 10 10 11
13 13 12 11 10 10 10 10 10 9 9 7 7 8 8 8 9 9 11 13 14 14 13 14 12 13 12 14 14 13 10 8 10 8 7 7 9 10 10 10 10 11 10
14 14 13 11 10 10 9 8 9 8 9 9 6 6 7 7 8 9 10 11 13 14 13 14 13 13 13 12 14 14 14 11 11 10 8 7 8 7 8 12 11 11 10
13 13 12 12 10 10 8 8 8 8 8 8 8 9 9 9 10 9 9 11 12 13 14 14 14 14 13 13 14 14 12 12 11 10 10 9 5 6 6 8 10 11 11
13 13 12 11 10 9 7 6 7 7 7 7 8 9 9 9 8 8 10 10 10 12 13 14 14 14 14 14 14 14 14 12 12 10 9 10 8 8 7 7 7 8 10
13 12 11 10 9 8 6 5 5 5 5 6 7 8 10 9 9 10 9 9 8 9 11 12 13 14 13 14 14 14 15 14 14 12 11 9 9 10 9 9 8 8 8
12 13 13 12 11 10 8 6 5 5 4 4 5 6 8 9 10 9 9 9 7 7 9 10 11 11 13 14 14 14 15 15 15 14 12 12 11 9 9 8 7 7 6
12 12 13 12 11 11 9 7 6 5 4 3 4 4 5 5 5 6 6 6 5 6 7 8 9 11 12 12 13 12 14 13 15 15 14 11 12 10 9 8 7 7 7
11 12 13 13 13 12 10 9 7 6 6 5 4 3 3 3 3 3 4 4 4 4 5 6 7 9 10 11 11 11 13 13 13 13 13 12 11 10 9 8 8 8 10
11 11 12 12 12 11 11 10 9 8 8 7 5 4 4 3 2 2 1 1 2 2 3 3 5 5 6 8 9 8 9 10 10 8 11 11 9 9 8 7 8 9 9
10 10 11 11 11 11 11 11 10 9 9 8 6 6 6 5 4 3 3 2 2 2 2 2 2 2 3 4 5 6 7 9 9 8 9 10 9 8 8 7 7 8 7
9 9 10 11 11 11 10 10 10 10 9 7 7 7 6 6 5 4 4 3 2 2 2 2 1 1 2 2 3 4 5 6 8 8 8 9 8 9 8 7 8 8 8
8 8 9 10 10 10 10 10 9 9 9 7 7 7 8 7 7 6 6 5 5 4 3 3 3 2 2 2 2 2 3 4 6 6 7 7 8 9 8 8 8 7 7
6 7 8 9 10 10 10 10 9 9 9 8 8 8 8 8 8 7 7 7 6 6 5 4 3 3 3 4 4 3 3 3 4 5 6 6 7 8 8 7 8 7 8
5 6 7 8 9 9 10 10 9 9 9 9 9 8 8 8 9 9 8 7 7 7 6 6 6 6 5 5 6 5 4 4 4 4 5 6 6 7 7 7 7 7 7
3 4 5 6 7 8 9 9 9 9 9 10 10 9 9 9 10 10 10 9 9 8 8 8 7 7 6 9 9 6 4 4 4 5 5 5 6 7 8 9 9 9 9
2 2 3 4 5 6 6 7 8 8 9 10 10 10 10 9 9 9 10 10 9 9 9 8 8 8 9 11 10 9 5 5 5 5 6 4 4 6 7 8 9 11 12
2 1 1 2 3 4 5 5 6 7 8 9 9 9 9 9 9 9 9 9 8 8 8 8 9 8 10 13 12 11 6 5 5 6 7 7 6 5 6 7 8 9 10
3 2 1 1 2 3 4 4 6 7 8 9 9 9 9 8 9 9 9 8 8 8 8 8 8 8 9 13 14 12 6 6 6 7 7 8 7 7 8 7 8 9 9
3 2 1 1 1 3 3 4 5 6 7 7 7 7 7 8 8 8 8 7 7 7 7 7 7 8 8 12 14 13 6 7 7 7 7 8 10 11 10 8 8 9 9
4 3 3 1 1 2 2 3 4 6 6 6 6 7 7 7 7 7 7 7 6 6 6 7 7 7 8 10 13 13 8 8 8 7 7 8 13 14 12 10 9 10 10
5 5 3 2 1 1 1 2 3 4 5 5 5 6 7 6 6 6 6 6 6 7 7 7 7 7 7 9 12 14 13 11 9 8 8 9 14 15 14 11 10 11 10
6 5 4 3 2 1 0 1 2 3 3 4 5 5 6 6 6 6 6 6 6 6 6 7 7 8 8 9 13 14 15 14 9 8 12 14 15 14 11 10 11 9 6
7 6 5 4 3 1 0 1 2 2 3 3 4 5 5 6 6 5 5 6 6 7 7 7 8 8 9 9 10 10 11 12 10 10 11 13 12 9 9 9 7 6 6
7 6 6 5 4 3 1 1 1 2 2 3 3 4 5 5 5 5 5 6 5 7 7 7 7 8 9 12 17 14 11 11 10 11 9 8 7 7 7 6 6 6 6
7 7 6 5 4 3 2 1 1 2 2 3 3 3 4 4 5 5 5 5 6 9 9 9 9 9 11 16 17 17 17 16 15 10 7 7 7 7 7 7 7 7 7
Wind_Direction
312 312 308 302 293 283 272 265 262 259 252 245 240 236 235 230 226 226 224 220 217 212 209 207 206 203 204 204 202 201 201 204 199 205 222 229 230 230 227 226 225 222 221
320 319 315 307 298 288 276 264 258 256 249 244 243 241 242 239 230 225 224 221 219 216 212 211 208 205 207 207 204 201 202 202 196 201 207 221 224 225 227 225 225 225 219
323 321 319 312 305 293 279 268 259 253 248 246 242 239 237 238 231 225 223 220 220 218 216 216 214 211 209 209 207 205 204 204 202 206 205 212 225 217 214 221 223 223 220
330 327 325 319 310 299 286 274 265 256 250 243 237 230 229 231 231 228 224 220 219 219 218 219 217 215 213 213 210 207 208 207 206 209 223 233 236 217 217 213 220 223 225
336 332 330 325 318 311 301 288 276 265 255 244 238 234 236 237 235 232 228 225 223 223 221 221 220 218 217 215 212 209 208 210 213 209 210 224 230 229 228 228 218 220 224
342 340 339 336 332 330 322 310 294 283 270 254 247 240 239 237 233 229 227 226 225 223 223 224 224 223 221 220 217 213 213 212 214 215 214 214 215 217 222 233 227 227 224
351 353 352 349 346 343 339 326 312 300 285 267 258 253 250 242 238 235 232 228 225 224 223 223 225 226 225 222 219 217 215 215 214 216 218 220 224 224 225 232 236 235 231
355 356 357 355 352 352 351 343 334 322 317 302 281 266 263 255 250 245 237 234 233 231 228 226 229 232 232 229 224 221 221 220 218 218 219 222 225 224 221 223 224 233 238
359 1 0 360 359 359 1 1 2 359 356 346 333 322 306 280 270 260 247 242 247 250 240 233 233 236 234 233 230 226 225 222 220 221 222 223 225 226 224 223 224 229 243
2 3 3 1 2 4 7 14 16 13 11 10 11 13 8 1 343 330 314 273 278 278 268 255 245 244 242 236 231 228 226 222 223 223 224 225 226 227 224 223 229 232 239
1 3 5 6 6 10 14 18 17 19 18 13 16 23 22 23 23 18 4 349 357 349 310 279 259 255 255 244 233 229 229 227 225 223 226 228 224 224 223 222 225 229 232
1 5 8 10 12 13 16 17 17 19 15 13 20 26 23 24 24 17 6 7 10 357 340 325 311 300 294 283 263 248 240 236 232 229 229 231 227 227 227 225 228 230 229
4 8 12 13 13 14 17 18 19 19 18 20 29 31 27 24 21 17 14 18 17 14 8 8 9 356 346 329 305 286 269 253 246 240 236 238 233 231 230 229 230 232 234
4 6 10 13 14 14 16 17 18 20 23 31 37 35 28 25 26 26 24 25 23 20 17 16 7 357 359 354 341 324 315 291 272 256 247 243 238 238 239 237 236 235 234
358 2 6 9 11 13 15 18 21 22 26 33 38 33 28 28 29 28 26 29 27 23 21 24 24 20 16 5 348 336 322 316 307 288 263 250 245 245 243 242 241 238 237
335 352 2 7 10 11 11 15 20 22 28 35 34 31 30 30 29 27 27 29 27 26 27 28 27 23 18 11 5 354 338 329 327 325 302 274 252 251 247 244 243 239 238
295 332 353 2 7 9 10 15 19 23 31 34 32 30 29 29 28 27 28 28 25 28 31 30 30 27 21 16 12 7 352 346 342 338 334 309 288 279 267 257 248 242 240
236 271 328 357 9 16 17 19 25 28 31 32 29 27 26 27 25 26 25 21 20 22 22 20 20 20 17 13 10 1 354 347 343 336 330 322 307 295 290 279 267 261 253
207 208 216 354 15 22 21 26 30 29 30 26 22 18 19 20 20 20 17 14 15 16 15 13 13 14 12 11 7 0 351 347 342 338 334 330 317 318 312 287 276 273 271
184 176 158 107 40 21 21 32 30 28 23 16 12 12 14 15 14 10 8 7 8 7 6 8 8 8 6 7 4 358 350 343 336 332 329 332 330 320 315 294 285 279 281
173 167 157 138 58 25 31 35 27 18 8 6 8 10 10 8 5 3 2 1 1 1 2 2 2 2 0 360 1 358 352 340 330 326 325 326 331 322 311 302 287 283 289
177 172 167 156 111 50 39 34 19 2 1 4 7 8 6 4 359 358 357 357 357 357 358 357 356 356 354 353 351 351 347 339 327 321 320 320 324 321 313 306 299 297 295
184 179 176 166 149 113 34 14 359 355 356 1 2 1 359 359 356 354 353 353 357 357 355 353 349 347 346 345 344 341 338 335 327 317 316 315 317 318 315 315 313 308 297
190 183 182 185 183 177 196 331 345 343 343 350 351 350 351 353 355 353 353 353 354 353 350 347 342 339 338 340 340 336 331 328 323 317 315 314 313 311 310 314 317 315 304
189 187 193 197 195 189 202 275 320 323 329 339 341 343 346 345 347 351 352 348 350 347 338 335 332 330 329 331 330 330 327 327 321 319 313 313 316 318 319 320 321 319 313
187 189 194 197 196 195 203 228 280 297 310 324 334 337 337 338 339 339 338 342 335 336 336 333 328 323 322 324 328 330 328 326 325 320 313 312 313 314 314 313 314 314 311
Height
1475 1472 1468 1465 1463 1461 1461 1460 1461 1462 1463 1464 1465 1467 1469 1471 1473 1475 1478 1480 1483 1487 1490 1493 1496 1499 1501 1504 1507 1510 1512 1516 1519 1523 1525 1526 1527 1528 1529 1530 1531 1532 1533
1471 1467 1464 1461 1458 1456 1455 1455 1456 1456 1458 1459 1460 1462 1464 1465 1467 1470 1472 1475 1478 1481 1484 1487 1490 1493 1496 1499 1501 1504 1507 1510 1513 1516 1520 1522 1524 1522 1523 1525 1526 1527 1528
1468 1464 1460 1457 1454 1452 1451 1451 1451 1452 1453 1454 1455 1456 1458 1460 1462 1464 1466 1469 1472 1475 1478 1481 1484 1487 1490 1492 1495 1498 1501 1504 1507 1510 1513 1516 1516 1518 1518 1518 1520 1521 1522
1466 1462 1458 1454 1451 1449 1448 1447 1447 1447 1448 1449 1450 1451 1453 1454 1456 1459 1461 1464 1467 1470 1473 1476 1479 1481 1484 1486 1489 1492 1495 1498 1500 1503 1506 1509 1510 1512 1512 1513 1514 1515 1516
1465 1461 1456 1452 1449 1447 1445 1444 1443 1443 1444 1444 1445 1447 1448 1450 1452 1454 1456 1459 1461 1464 1467 1470 1473 1475 1478 1480 1483 1486 1488 1491 1493 1496 1499 1502 1504 1505 1506 1506 1508 1508 1509
1464 1460 1455 1451 1448 1445 1442 1441 1440 1440 1440 1440 1441 1442 1443 1445 1447 1449 1451 1454 1456 1459 1461 1464 1467 1469 1472 1474 1476 1478 1481 1483 1486 1489 1491 1494 1496 1498 1500 1501 1501 1501 1503
1464 1459 1454 1450 1446 1443 1440 1439 1437 1437 1437 1437 1437 1438 1439 1441 1443 1445 1447 1449 1451 1453 1455 1458 1460 1463 1465 1467 1470 1472 1474 1476 1478 1481 1484 1486 1488 1492 1494 1495 1495 1495 1496
1465 1460 1455 1450 1446 1442 1439 1437 1436 1435 1435 1434 1435 1435 1436 1437 1439 1440 1442 1444 1446 1448 1450 1452 1455 1457 1459 1461 1463 1465 1467 1469 1470 1472 1475 1478 1480 1483 1485 1488 1489 1489 1489
1466 1461 1456 1451 1447 1443 1439 1437 1435 1434 1433 1433 1433 1433 1433 1434 1435 1437 1439 1440 1442 1443 1445 1447 1449 1451 1453 1455 1457 1458 1460 1462 1463 1465 1467 1470 1472 1475 1477 1479 1481 1483 1482
1467 1463 1458 1453 1449 1444 1441 1438 1435 1434 1433 1432 1431 1431 1430 1431 1432 1434 1435 1436 1437 1439 1441 1442 1444 1445 1447 1448 1450 1451 1452 1454 1456 1458 1460 1462 1464 1466 1468 1470 1473 1474 1475
1469 1465 1460 1455 1451 1447 1443 1440 1437 1435 1433 1432 1431 1430 1430 1430 1430 1431 1432 1433 1434 1435 1437 1438 1439 1440 1441 1442 1444 1444 1446 1447 1448 1450 1452 1453 1456 1458 1459 1461 1463 1465 1467
1471 1467 1462 1458 1453 1449 1446 1442 1439 1437 1435 1433 1432 1431 1431 1430 1430 1430 1430 1431 1431 1433 1433 1434 1435 1435 1436 1437 1438 1439 1440 1441 1441 1443 1445 1446 1448 1450 1452 1454 1455 1456 1458
1472 1468 1464 1460 1456 1452 1449 1445 1442 1439 1437 1435 1433 1432 1431 1431 1430 1429 1429 1429 1430 1430 1431 1431 1431 1432 1432 1433 1433 1434 1434 1435 1436 1437 1438 1439 1441 1442 1444 1445 1446 1448 1450
1473 1470 1466 1463 1459 1455 1452 1448 1445 1442 1439 1437 1435 1433 1433 1432 1431 1430 1429 1429 1429 1429 1429 1429 1429 1429 1429 1429 1430 1430 1430 1430 1430 1431 1432 1432 1433 1434 1436 1437 1438 1440 1441
1474 1471 1468 1465 1461 1458 1455 1451 1448 1445 1442 1440 1437 1436 1435 1433 1432 1431 1430 1429 1429 1428 1427 1427 1427 1427 1427 1427 1426 1426 1426 1426 1425 1425 1425 1425 1426 1426 1428 1429 1430 1431 1432
1474 1472 1469 1467 1464 1461 1457 1454 1451 1448 1445 1443 1440 1439 1437 1435 1434 1432 1431 1430 1429 1427 1426 1425 1425 1424 1424 1423 1423 1422 1422 1421 1420 1419 1419 1419 1419 1420 1420 1421 1422 1423 1424
1474 1472 1470 1468 1465 1463 1460 1457 1454 1451 1448 1445 1443 1441 1439 1437 1436 1434 1432 1430 1428 1427 1426 1424 1423 1422 1421 1421 1420 1419 1418 1417 1416 1414 1414 1413 1413 1413 1413 1413 1414 1415 1416
1474 1472 1471 1468 1466 1464 1462 1459 1456 1453 1451 1448 1446 1443 1441 1439 1437 1435 1433 1431 1429 1427 1425 1424 1423 1421 1420 1418 1417 1416 1414 1413 1412 1411 1409 1408 1407 1407 1406 1406 1406 1406 1407
1473 1472 1470 1469 1467 1465 1463 1460 1458 1455 1453 1450 1448 1445 1443 1441 1438 1436 1434 1432 1430 1428 1426 1424 1422 1420 1419 1417 1415 1413 1411 1409 1408 1407 1405 1403 1401 1400 1400 1400 1399 1399 1399
1472 1471 1470 1469 1467 1465 1463 1461 1459 1456 1454 1452 1449 1447 1445 1442 1439 1437 1435 1433 1430 1428 1426 1424 1421 1419 1417 1415 1413 1411 1409 1407 1405 1403 1401 1399 1397 1395 1394 1394 1393 1392 1391
1470 1470 1469 1468 1467 1465 1464 1461 1459 1457 1455 1452 1450 1448 1445 1442 1440 1437 1435 1432 1430 1428 1425 1423 1420 1418 1416 1414 1411 1409 1407 1404 1402 1399 1397 1395 1392 1391 1389 1388 1387 1386 1385
1469 1468 1468 1467 1466 1465 1463 1461 1459 1457 1455 1453 1450 1448 1445 1442 1440 1437 1434 1432 1429 1427 1424 1421 1419 1416 1414 1411 1409 1406 1404 1401 1399 1396 1393 1391 1388 1386 1384 1383 1381 1380 1379
1466 1466 1466 1465 1464 1463 1462 1460 1458 1456 1454 1452 1450 1447 1445 1442 1439 1436 1434 1431 1428 1426 1423 1420 1418 1415 1412 1409 1407 1404 1401 1398 1396 1393 1390 1387 1385 1382 1379 1378 1376 1374 1373
1463 1463 1463 1463 1462 1461 1460 1459 1457 1455 1453 1451 1449 1447 1444 1441 1438 1436 1433 1430 1427 1425 1422 1419 1416 1413 1410 1407 1404 1401 1398 1395 1392 1389 1386 1384 1381 1378 1376 1373 1371 1370 1368
1460 1460 1460 1460 1460 1459 1458 1457 1455 1454 1452 1450 1448 1445 1443 1440 1437 1435 1432 1429 1426 1424 1421 1418 1415 1411 1408 1405 1403 1399 1395 1392 1389 1386 1383 1380 1377 1375 1372 1370 1368 1366 1364
1456 1457 1457 1457 1457 1456 1455 1454 1453 1452 1450 1448 1446 1443 1441 1438 1435 1433 1430 1427 1425 1422 1419 1416 1413 1409 1407 1403 1399 1396 1392 1389 1385 1382 1379 1376 1374 1371 1369 1366 1364 1362 1360